Time,TemperatureF,DewpointF,PressureIn,WindDirection,WindDirectionDegrees,WindSpeedMPH,WindSpeedGustMPH,Humidity,HourlyPrecipIn,Conditions,Clouds,dailyrainin,SolarRadiationWatts/m^2,SoftwareType,DateUTC
2013-05-20 00:03:00,73.0,69.0,-100.00,NE,44,0.0,3.0,87,0.00,,,0.00,0.000000,,2013-05-20 04:03:00,
2013-05-20 00:33:00,73.0,70.0,-100.00,West,276,0.0,6.0,89,0.00,,,0.00,0.000000,,2013-05-20 04:33:00,
2013-05-20 00:43:00,73.0,70.0,-100.00,West,276,0.0,6.0,89,0.00,,,0.00,0.000000,,2013-05-20 04:43:00,
2013-05-20 00:53:00,73.0,70.0,-100.00,West,276,0.0,6.0,89,0.00,,,0.00,0.000000,,2013-05-20 04:53:00,
2013-05-20 01:02:00,73.0,70.0,-100.00,West,276,0.0,6.0,89,0.00,,,0.00,0.000000,,2013-05-20 05:02:00,
2013-05-20 01:32:00,71.0,69.0,-100.00,South,178,0.0,6.0,94,0.00,,,0.00,0.000000,,2013-05-20 05:32:00,
2013-05-20 01:42:00,71.0,69.0,-100.00,South,178,0.0,6.0,94,0.00,,,0.00,0.000000,,2013-05-20 05:42:00,
2013-05-20 01:52:00,71.0,69.0,-100.00,South,178,0.0,6.0,94,0.00,,,0.00,0.000000,,2013-05-20 05:52:00,
2013-05-20 02:01:00,71.0,69.0,-100.00,South,178,0.0,6.0,94,0.00,,,0.00,0.000000,,2013-05-20 06:01:00,
2013-05-20 02:32:00,70.0,68.0,-100.00,SSW,204,0.0,8.0,95,0.00,,,-99.99,0.000000,,2013-05-20 06:32:00,
2013-05-20 02:42:00,70.0,68.0,-100.00,SSW,204,0.0,8.0,95,0.00,,,-99.99,0.000000,,2013-05-20 06:42:00,
2013-05-20 02:52:00,70.0,68.0,-100.00,SSW,204,0.0,8.0,95,0.00,,,-99.99,0.000000,,2013-05-20 06:52:00,
2013-05-20 03:02:00,70.0,68.0,-100.00,SSW,204,0.0,8.0,95,0.00,,,-99.99,0.000000,,2013-05-20 07:02:00,
2013-05-20 03:42:00,69.0,68.0,-100.00,SW,218,1.0,7.0,95,0.00,,,0.00,0.000000,,2013-05-20 07:42:00,
2013-05-20 03:52:00,69.0,68.0,-100.00,SW,218,1.0,7.0,95,0.00,,,0.00,0.000000,,2013-05-20 07:52:00,
2013-05-20 04:01:00,69.0,68.0,-100.00,SW,218,1.0,7.0,95,0.00,,,0.00,0.000000,,2013-05-20 08:01:00,
2013-05-20 04:42:00,67.0,66.0,-100.00,South,189,1.0,5.0,96,0.00,,,0.00,0.000000,,2013-05-20 08:42:00,
2013-05-20 04:52:00,67.0,66.0,-100.00,South,189,1.0,5.0,96,0.00,,,0.00,0.000000,,2013-05-20 08:52:00,
2013-05-20 05:02:00,67.0,66.0,-100.00,South,189,1.0,5.0,96,0.00,,,0.00,0.000000,,2013-05-20 09:02:00,
2013-05-20 05:33:00,66.0,65.0,-100.00,WSW,244,1.0,8.0,97,0.00,,,0.00,0.000000,,2013-05-20 09:33:00,
2013-05-20 05:43:00,66.0,65.0,-100.00,WSW,244,1.0,8.0,97,0.00,,,0.00,0.000000,,2013-05-20 09:43:00,
2013-05-20 05:53:00,66.0,65.0,-100.00,WSW,244,1.0,8.0,97,0.00,,,0.00,0.000000,,2013-05-20 09:53:00,
2013-05-20 06:03:00,66.0,65.0,-100.00,WSW,244,1.0,8.0,97,0.00,,,0.00,0.000000,,2013-05-20 10:03:00,
2013-05-20 06:42:00,65.0,64.0,-100.00,WSW,238,1.0,5.0,98,0.00,,,0.00,0.000000,,2013-05-20 10:42:00,
2013-05-20 06:52:00,65.0,64.0,-100.00,WSW,238,1.0,5.0,98,0.00,,,0.00,0.000000,,2013-05-20 10:52:00,
2013-05-20 07:02:00,65.0,64.0,-100.00,WSW,238,1.0,5.0,98,0.00,,,0.00,0.000000,,2013-05-20 11:02:00,
2013-05-20 07:32:00,66.0,65.0,-100.00,SW,214,1.0,7.0,98,0.00,,,0.00,11.000000,,2013-05-20 11:32:00,
2013-05-20 07:42:00,66.0,65.0,-100.00,SW,214,1.0,7.0,98,0.00,,,0.00,11.000000,,2013-05-20 11:42:00,
2013-05-20 07:52:00,66.0,65.0,-100.00,SW,214,1.0,7.0,98,0.00,,,0.00,11.000000,,2013-05-20 11:52:00,
2013-05-20 08:01:00,66.0,65.0,-100.00,SW,214,1.0,7.0,98,0.00,,,0.00,11.000000,,2013-05-20 12:01:00,
2013-05-20 08:32:00,70.0,68.0,-100.00,SW,231,1.0,8.0,94,0.00,,,0.00,110.000000,,2013-05-20 12:32:00,
2013-05-20 08:42:00,70.0,68.0,-100.00,SW,231,1.0,8.0,94,0.00,,,0.00,110.000000,,2013-05-20 12:42:00,
2013-05-20 08:52:00,70.0,68.0,-100.00,SW,231,1.0,8.0,94,0.00,,,0.00,110.000000,,2013-05-20 12:52:00,
2013-05-20 09:01:00,70.0,68.0,-100.00,SW,231,1.0,8.0,94,0.00,,,0.00,110.000000,,2013-05-20 13:01:00,
2013-05-20 10:32:00,78.0,70.0,-100.00,West,269,3.0,13.0,77,-99.99,,,0.00,472.000000,,2013-05-20 14:32:00,
2013-05-20 10:42:00,78.0,70.0,-100.00,West,269,3.0,13.0,77,-99.99,,,0.00,472.000000,,2013-05-20 14:42:00,
2013-05-20 10:52:00,78.0,70.0,-100.00,West,269,3.0,13.0,77,-99.99,,,0.00,472.000000,,2013-05-20 14:52:00,
2013-05-20 11:01:00,78.0,70.0,-100.00,West,269,3.0,13.0,77,-99.99,,,0.00,472.000000,,2013-05-20 15:01:00,
2013-05-20 11:42:00,80.0,70.0,-100.00,West,267,4.0,13.0,71,0.00,,,0.00,673.000000,,2013-05-20 15:42:00,
2013-05-20 11:53:00,80.0,70.0,-100.00,West,267,4.0,13.0,71,0.00,,,0.00,673.000000,,2013-05-20 15:53:00,
2013-05-20 12:03:00,80.0,70.0,-100.00,West,267,4.0,13.0,71,0.00,,,0.00,673.000000,,2013-05-20 16:03:00,
2013-05-20 12:33:00,81.0,69.0,-100.00,West,276,4.0,13.0,67,0.00,,,0.00,670.000000,,2013-05-20 16:33:00,
2013-05-20 12:42:00,81.0,69.0,-100.00,West,276,4.0,13.0,67,0.00,,,0.00,670.000000,,2013-05-20 16:42:00,
2013-05-20 12:53:00,81.0,69.0,-100.00,West,276,4.0,13.0,67,0.00,,,0.00,670.000000,,2013-05-20 16:53:00,
2013-05-20 13:02:00,81.0,69.0,-100.00,West,276,4.0,13.0,67,0.00,,,0.00,670.000000,,2013-05-20 17:02:00,
2013-05-20 13:45:00,83.0,69.0,-100.00,WSW,251,3.0,12.0,63,0.00,,,0.00,625.000000,,2013-05-20 17:45:00,
2013-05-20 13:53:00,83.0,69.0,-100.00,WSW,251,3.0,12.0,63,0.00,,,0.00,625.000000,,2013-05-20 17:53:00,
2013-05-20 14:02:00,83.0,69.0,-100.00,WSW,251,3.0,12.0,63,0.00,,,0.00,625.000000,,2013-05-20 18:02:00,
2013-05-20 14:33:00,85.0,70.0,-100.00,WSW,243,2.0,9.0,60,0.00,,,0.00,635.000000,,2013-05-20 18:33:00,
2013-05-20 14:42:00,85.0,70.0,-100.00,WSW,243,2.0,9.0,60,0.00,,,0.00,635.000000,,2013-05-20 18:42:00,
2013-05-20 14:55:00,85.0,70.0,-100.00,WSW,243,2.0,9.0,60,0.00,,,0.00,635.000000,,2013-05-20 18:55:00,
2013-05-20 15:04:00,85.0,70.0,-100.00,WSW,243,2.0,9.0,60,0.00,,,0.00,635.000000,,2013-05-20 19:04:00,
2013-05-20 16:32:00,83.0,69.0,-100.00,SW,226,1.0,10.0,62,-99.99,,,0.00,467.000000,,2013-05-20 20:32:00,
2013-05-20 16:42:00,83.0,69.0,-100.00,SW,226,1.0,10.0,62,-99.99,,,0.00,467.000000,,2013-05-20 20:42:00,
2013-05-20 16:52:00,83.0,69.0,-100.00,SW,226,1.0,10.0,62,-99.99,,,0.00,467.000000,,2013-05-20 20:52:00,
2013-05-20 17:01:00,83.0,69.0,-100.00,SW,226,1.0,10.0,62,-99.99,,,0.00,467.000000,,2013-05-20 21:01:00,
2013-05-20 18:42:00,86.0,68.0,-100.00,WSW,256,3.0,8.0,56,-99.99,,,0.00,333.000000,,2013-05-20 22:42:00,
2013-05-20 18:52:00,86.0,68.0,-100.00,WSW,256,3.0,8.0,56,-99.99,,,0.00,333.000000,,2013-05-20 22:52:00,
2013-05-20 19:03:00,86.0,68.0,-100.00,WSW,256,3.0,8.0,56,-99.99,,,0.00,333.000000,,2013-05-20 23:03:00,
2013-05-20 19:42:00,82.0,68.0,-100.00,SSW,210,1.0,8.0,63,0.00,,,0.00,313.000000,,2013-05-20 23:42:00,
2013-05-20 19:53:00,82.0,68.0,-100.00,SSW,210,1.0,8.0,63,0.00,,,0.00,313.000000,,2013-05-20 23:53:00,
2013-05-20 20:01:00,82.0,68.0,-100.00,SSW,210,1.0,8.0,63,0.00,,,0.00,313.000000,,2013-05-21 00:01:00,
2013-05-20 20:32:00,80.0,68.0,-100.00,WSW,245,0.0,7.0,67,0.00,,,0.00,125.000000,,2013-05-21 00:32:00,
2013-05-20 20:42:00,80.0,68.0,-100.00,WSW,245,0.0,7.0,67,0.00,,,0.00,125.000000,,2013-05-21 00:42:00,
2013-05-20 20:52:00,80.0,68.0,-100.00,WSW,245,0.0,7.0,67,0.00,,,0.00,125.000000,,2013-05-21 00:52:00,
2013-05-20 21:01:00,80.0,68.0,-100.00,WSW,245,0.0,7.0,67,0.00,,,0.00,125.000000,,2013-05-21 01:01:00,
2013-05-20 21:32:00,75.0,67.0,-100.00,SE,131,0.0,6.0,77,0.00,,,0.00,18.000000,,2013-05-21 01:32:00,
2013-05-20 21:42:00,75.0,67.0,-100.00,SE,131,0.0,6.0,77,0.00,,,0.00,18.000000,,2013-05-21 01:42:00,
2013-05-20 21:53:00,75.0,67.0,-100.00,SE,131,0.0,6.0,77,0.00,,,0.00,18.000000,,2013-05-21 01:53:00,
2013-05-20 22:02:00,75.0,67.0,-100.00,SE,131,0.0,6.0,77,0.00,,,0.00,18.000000,,2013-05-21 02:02:00,
2013-05-20 22:32:00,73.0,66.0,-100.00,WSW,257,0.0,6.0,79,0.00,,,0.00,0.000000,,2013-05-21 02:32:00,
2013-05-20 22:42:00,73.0,66.0,-100.00,WSW,257,0.0,6.0,79,0.00,,,0.00,0.000000,,2013-05-21 02:42:00,
2013-05-20 22:52:00,73.0,66.0,-100.00,WSW,257,0.0,6.0,79,0.00,,,0.00,0.000000,,2013-05-21 02:52:00,
2013-05-20 23:02:00,73.0,66.0,-100.00,WSW,257,0.0,6.0,79,0.00,,,0.00,0.000000,,2013-05-21 03:02:00,
2013-05-20 23:33:00,72.0,66.0,-100.00,SSE,158,0.0,6.0,82,0.00,,,0.00,0.000000,,2013-05-21 03:33:00,
2013-05-20 23:43:00,72.0,66.0,-100.00,SSE,158,0.0,6.0,82,0.00,,,0.00,0.000000,,2013-05-21 03:43:00,
2013-05-20 23:53:00,72.0,66.0,-100.00,SSE,158,0.0,6.0,82,0.00,,,0.00,0.000000,,2013-05-21 03:53:00,